Location: Gompelscheuer
(48.6350°N, 8.4477°E)
Time: 11:45:00
(UTC+00:00)

Daily predictions for brighter satellites

Satellite Brightness Start Highest point End
(mag) Time Altitude Azimuth Time Altitude Azimuth Time Altitude Azimuth
Cosmos 1980 Rocket 2.3 19:38:19 10° NNW 19:43:58 82° WSW 19:49:37 10° SSE
Cosmos 2369 4.2 19:38:41 10° NNW 19:44:15 62° WSW 19:49:49 10° SSE
Cosmos 2058 3.3 19:41:26 10° SSW 19:45:36 70° W 19:49:49 10° N
MetOp-B 4.5 19:41:26 10° SE 19:46:36 53° ENE 19:51:50 10° N
USA 234 4.4 19:40:54 10° ENE 19:47:01 43° N 19:53:07 10° WNW
Cosmos 2221 2.9 19:44:52 10° NNW 19:49:09 67° W 19:53:26 10° S
ERBS 4.4 19:47:56 10° W 19:50:14 18° SW 19:52:32 10° S
RESURS DK-1 2.3 19:46:57 10° SSW 19:51:06 81° ESE 19:55:17 10° NNE
USA 245 4.4 19:48:41 10° SE 19:53:21 40° ENE 19:57:13 10° N
COSMOS 2406 4.0 19:48:55 10° SW 19:54:31 59° WNW 20:00:12 10° NNE
Cosmos 2322 Rocket 3.2 19:49:26 10° NNW 19:54:34 34° NE 19:59:39 10° ESE
BREEZE-M DEB (TANK) 3.7 19:51:17 10° SSW 19:54:43 44° SE 20:05:20 10° ENE
Cosmos 304 Rocket 4.1 19:54:32 10° NNW 19:59:16 54° ENE 20:03:55 10° SE
BREEZE-M DEB (TANK) 3.5 19:57:06 10° W 20:00:07 65° SSW 20:08:47 10° ESE
Cosmos 1933 3.8 19:56:45 10° N 20:00:39 43° ENE 20:04:31 10° SSE
Cosmos 1538 Rocket 4.0 19:56:49 10° S 20:01:56 61° ESE 20:07:03 10° NNE
Resurs 01 Rocket 1.8 19:59:51 10° S 20:04:18 80° WSW 20:08:46 10° NNW
ERS-2 2.2 20:01:32 10° NNE 20:05:12 83° WNW 20:08:50 10° SSW
Cosmos 2151 3.2 20:02:16 10° S 20:06:23 51° E 20:10:32 10° NNE
Cosmos 2098 Rocket 2.3 20:04:32 10° S 20:07:38 87° ESE 20:11:22 10° N
Cosmos 44 Rocket 4.3 20:02:50 10° SW 20:07:58 57° NW 20:13:09 10° NNE
Gbstr 26 Del rocket 2.6 20:05:27 10° WNW 20:09:11 88° NNE 20:12:56 11° ESE
Meteor 2-3 Rocket 4.0 20:06:10 10° SSE 20:11:35 49° E 20:17:05 10° NNE
CARTOSAT-1 4.0 20:09:30 12° SE 20:13:21 46° ENE 20:17:29 10° N
Cosmos 2219 Rocket 4.2 20:11:57 10° N 20:15:35 17° NE 20:19:12 10° ENE
Ariane Rocket 4.1 20:14:00 10° S 20:18:49 43° W 20:23:39 10° NNW
SL-16 R/B 2.4 20:17:40 10° NNW 20:23:20 64° ENE 20:28:03 15° SE
Cosmos 1782 3.1 20:23:12 10° N 20:27:08 50° ENE 20:30:03 17° SSE
Cosmos 371 Rocket 4.0 20:23:13 10° NNW 20:27:54 50° WSW 20:32:31 10° S
ARIANE 5 R/B 2.9 20:26:51 15° SSE 20:30:26 57° ENE 20:34:49 10° N
Cosmos 1271 Rocket 2.7 20:29:43 10° N 20:33:43 82° ENE 20:36:56 16° SSE
SPOT 1/Viking Rocket 3.8 20:31:28 10° S 20:36:39 71° WSW 20:41:53 10° NNW
USA 276 2.2 20:33:43 10° WNW 20:36:50 58° SSW 20:38:32 23° SE
BREEZE-M DEB (TANK) 3.0 20:34:55 10° W 20:37:56 48° SSW 20:43:14 16° SE
Cosmos 2195 Rocket 4.4 20:32:36 10° S 20:38:43 78° E 20:44:50 10° NNE
Cosmos 1151 Rocket 3.2 20:36:26 10° N 20:40:45 57° ENE 20:43:40 20° SSE
Cosmos 1766 Rocket 4.0 20:37:41 17° SSE 20:40:48 43° E 20:44:59 10° NNE
ATLAS 5 CENTAUR R/B 4.0 20:38:00 10° NNW 20:42:04 23° NNE 20:46:42 10° ENE
Cosmos 1328 Rocket 4.0 20:40:38 10° N 20:44:58 49° ENE 20:47:39 21° SE
ATLAS 2AS CENTAUR R/B 3.9 20:38:10 10° WSW 20:45:52 52° NW 20:53:19 10° NE
Cosmos 923 Rocket 4.0 20:43:01 10° S 20:48:19 68° ESE 20:53:38 10° NNE
ATLAS 3B R/B 3.6 20:43:47 10° NW 20:50:25 43° WSW 20:56:42 12° S
Terra 2.1 20:47:56 20° SE 20:51:01 54° ENE 20:55:41 10° N
SPOT 5 2.6 20:50:48 21° SSE 20:53:40 78° ENE 20:58:06 10° NNW
USA 267 4.1 20:48:31 10° ENE 20:53:54 27° SE 20:59:01 11° S
Cosmos 1092 Rocket 4.2 20:50:35 10° SSW 20:56:49 76° W 21:03:12 10° N
Cosmos 2082 Rocket 3.8 20:51:46 10° WSW 20:57:01 38° NW 21:02:19 10° NNE
Cosmos 2056 Rocket 3.7 20:53:33 10° NNW 20:58:54 62° ENE 21:02:09 23° SE
NOSS 2-1 (C) 3.7 21:00:51 29° ESE 21:00:51 29° ESE 21:03:36 10° ENE
BREEZE-M DEB (TANK) 1.4 21:00:33 10° W 21:02:45 80° N 21:03:13 45° ENE
ERS-1 Rocket 3.0 21:00:35 20° SSE 21:04:07 85° WSW 21:09:10 10° NNW
Cosmos 2360 Rocket 2.4 21:01:05 10° NNW 21:06:43 64° ENE 21:10:08 24° SE
SL-27 R/B 3.3 21:06:23 30° ESE 21:06:51 31° ESE 21:10:05 10° NE
NOSS 2-1 (D) 3.4 21:08:18 35° SE 21:08:19 35° SE 21:11:24 10° NE
Cosmos 2026 Rocket 4.2 21:03:28 10° SSW 21:09:49 75° W 21:16:07 10° N
GP-B 3.7 21:08:04 10° N 21:12:26 56° W 21:16:13 13° SSW
ISS -1.8 21:13:06 10° W 21:15:29 18° SW 21:15:56 17° SSW
Cosmos 2333 Rocket 3.0 21:11:50 10° NNW 21:17:13 42° NE 21:20:38 21° ESE
Spot 2 Rocket 4.3 21:14:48 15° SSW 21:18:50 46° W 21:23:46 10° NNW
Meteor 1-10 Rocket 4.2 21:14:19 10° N 21:19:53 67° ENE 21:22:51 28° SSE
Cosmos 1371 Rocket 4.1 21:15:01 10° NNW 21:20:25 83° WSW 21:23:22 27° SSE
Cosmos 1812 2.7 21:17:32 10° NNW 21:21:25 80° W 21:23:04 33° S
Cosmos 2112 Rocket 3.9 21:17:49 11° SSW 21:22:56 85° ESE 21:28:14 10° NNE
Cosmos 1680 Rocket 3.5 21:18:09 10° SSW 21:23:27 83° WNW 21:28:45 10° NNE
Cosmos 1500 Rocket 4.4 21:22:35 30° ESE 21:23:43 35° E 21:27:45 10° NNE
Cosmos 220 Rocket 4.2 21:19:30 10° NNW 21:23:49 65° WSW 21:25:50 30° S
Cosmos 2322 4.3 21:22:02 10° NNW 21:27:35 47° NE 21:30:49 24° ESE
Okean 3 Rocket 3.9 21:24:58 17° SSW 21:28:20 66° W 21:32:52 10° N
USA 234 3.8 21:23:01 10° E 21:29:26 59° NNE 21:35:51 10° NW
Cosmos 292 Rocket 3.8 21:26:53 10° NNW 21:31:40 70° ENE 21:33:40 34° SE
Cosmos 2237 Rocket 4.2 21:33:14 10° N 21:37:29 21° NE 21:41:43 10° E
Cosmos 2322 Rocket 2.8 21:33:24 10° NW 21:38:48 48° WSW 21:41:46 25° S
Meteor 2-16 Rocket 4.4 21:35:25 27° S 21:38:51 70° E 21:44:56 10° NNE
Cosmos 1408 Rocket 3.5 21:40:12 32° S 21:42:10 87° W 21:46:33 10° N
Cosmos 1743 Rocket 3.8 21:42:22 40° SE 21:43:34 53° E 21:47:54 10° NNE
Cosmos 2285 Rocket 4.4 21:38:14 10° NNW 21:44:25 53° ENE 21:47:42 27° SE
Cosmos 2315 Rocket 4.2 21:43:02 10° N 21:49:18 62° ENE 21:52:17 32° SE
Sich 1 4.0 21:51:50 29° ESE 21:52:17 30° E 21:56:06 10° NNE
Cosmos 2084 3.3 21:48:52 14° SW 21:52:19 83° NW 21:56:32 10° NE
Gbstr 26 Del rocket 4.2 21:52:32 10° W 21:55:26 23° SW 21:55:26 23° SW
Cosmos 2266 Rocket 3.9 21:53:29 30° S 21:56:47 82° E 22:03:02 10° N
Cosmos 1862 4.2 21:57:03 25° SW 21:59:03 46° WNW 22:02:54 10° N
Cosmos 2219 Rocket 2.3 21:55:01 10° NNW 22:00:38 69° ENE 22:02:58 35° SE
Cosmos 2228 Rocket 3.0 22:00:37 10° N 22:05:03 75° E 22:06:05 51° SSE
Cosmos 1515 Rocket 4.3 22:00:52 10° NNW 22:05:07 46° W 22:06:43 31° SW
H-2A R/B 3.8 22:01:18 10° N 22:05:28 63° WNW 22:07:14 32° SW
NOSS 2-1 (E) 3.1 22:05:22 38° WSW 22:06:25 66° NW 22:09:55 10° NE
SL-16 R/B 3.9 22:02:34 10° NW 22:06:57 23° WSW 22:09:55 16° SW
NOSS 3-1 (C) 4.0 22:02:28 10° NW 22:09:54 81° SW 22:14:30 31° SSE
Cosmos 2333 4.2 22:04:35 10° NNW 22:10:12 76° WSW 22:12:13 41° SSE
COSMOS 2455 2.9 22:09:10 36° S 22:11:24 58° ESE 22:17:18 10° NE
Cosmos 1420 Rocket 4.5 22:06:40 10° NNW 22:11:50 52° WSW 22:13:43 35° SSW
COSMOS 2428 2.8 22:09:39 10° NNW 22:15:23 73° ENE 22:17:35 39° SE
Cosmos 1655 Rocket 4.3 22:12:44 24° SSW 22:16:43 67° WNW 22:23:08 10° N
Cosmos 1602 4.4 22:17:48 39° E 22:17:48 39° E 22:21:17 10° NNE
Cosmos 1515 3.9 22:16:56 10° N 22:20:39 53° ENE 22:20:48 52° E
Spot 4 3.8 22:21:45 50° SSE 22:23:00 85° ENE 22:27:52 10° NNW
USA 229 DEB 3.9 22:16:49 10° NW 22:24:08 85° NE 22:28:16 31° SE
USA 229 3.9 22:16:55 10° NW 22:24:14 84° NE 22:28:23 31° SE
ATLAS 5 CENTAUR R/B 2.5 22:22:09 10° NW 22:27:34 68° NE 22:30:39 31° ESE
Terra 3.8 22:26:49 15° SW 22:29:07 21° W 22:32:40 10° NW
Cosmos 1452 Rocket 3.6 22:26:11 10° NNW 22:31:25 68° WSW 22:32:49 47° S
COSMOS 2487 2.5 22:31:49 69° NNE 22:31:49 69° NNE 22:34:52 10° NNE
Cosmos 1707 Rocket 3.6 22:27:20 10° N 22:31:41 64° ENE 22:32:18 56° ESE
ALOS 2 2.7 22:33:57 54° ESE 22:34:42 65° ENE 22:39:04 10° N
USA 267 3.1 22:30:59 10° ENE 22:37:34 81° SE 22:44:07 10° SW
Meteor 1-27 Rocket 4.4 22:36:45 10° NNW 22:42:06 45° W 22:44:14 31° SW
Cosmos 1666 4.3 22:44:25 23° E 22:44:25 23° E 22:47:11 10° NE
NOSS 3-1 (A) 4.0 22:37:09 10° NW 22:44:36 80° SW 22:48:48 34° SSE
Cosmos 2360 Rocket 3.7 22:45:54 10° NW 22:50:13 23° WSW 22:51:53 20° SW
Cosmos 1805 Rocket 4.0 22:49:13 44° SW 22:50:15 56° WNW 22:54:38 10° N
Nadezhda 2 Rocket 4.5 22:49:09 42° S 22:51:31 87° E 22:57:58 10° N
Meteor 1-20 Rocket 4.3 22:54:51 42° SSW 22:56:46 75° WNW 23:02:30 10° N
Cosmos 1110 Rocket 4.0 22:52:09 10° NNW 22:57:30 76° WSW 22:58:40 54° S
Cosmos 1980 3.9 22:53:36 10° NNW 22:59:15 65° ENE 23:01:19 39° SE
Cosmos 2333 Rocket 3.0 22:56:16 10° NW 23:01:26 37° WSW 23:02:38 34° SW
Cosmos 1331 Rocket 3.9 22:57:41 10° NNW 23:02:56 76° WSW 23:03:58 57° S
Cosmos 1244 Rocket 4.4 23:03:47 42° SSW 23:06:00 80° W 23:12:15 10° N
Nimbus 7 Rocket 4.4 23:06:17 10° NNE 23:12:20 70° ESE 23:14:02 47° S
USA 234 3.2 23:10:02 40° SSE 23:12:25 65° SW 23:18:57 10° WNW
Cosmos 1340 Rocket 4.0 23:13:35 31° E 23:13:35 31° E 23:16:46 10° NNE
NOSS 0 Rocket 3.9 23:07:57 10° NNW 23:14:11 75° WSW 23:16:01 47° S
Cosmos 2297 Rocket 2.6 23:17:11 42° SE 23:18:00 45° ESE 23:23:23 10° NE
Okean 1-7 3.9 23:14:19 10° N 23:18:19 38° ENE 23:18:54 36° E
Lacrosse 5 2.6 23:21:59 37° ESE 23:21:59 37° ESE 23:26:00 10° ENE
Cosmos 2237 Rocket 2.1 23:16:40 10° NNW 23:22:23 87° ENE 23:24:02 49° SSE
Cosmos 2084 Rocket 3.3 23:19:45 10° NW 23:23:57 90° WSW 23:24:07 83° SE
Cosmos 2242 Rocket 4.2 23:20:12 10° N 23:24:28 45° ENE 23:25:08 42° ESE
NOSS 2-2 (E) 4.4 23:19:56 10° NW 23:25:14 87° NE 23:28:32 34° SE
Meteor 1-18 Rocket 4.5 23:19:40 10° NNW 23:25:27 61° W 23:26:57 46° SSW
Cosmos 1500 3.5 23:26:57 58° WNW 23:26:57 58° WNW 23:30:44 10° N
Cosmos 1470 Rocket 3.3 23:29:03 79° SSE 23:29:16 83° E 23:33:37 10° N
Cosmos 2227 Rocket 2.7 23:28:53 39° SE 23:29:43 42° ESE 23:35:01 10° NE
Sich 1 4.5 23:28:46 26° W 23:29:55 29° WNW 23:33:45 10° N
Okean 1 4.4 23:28:11 10° NNW 23:31:46 33° W 23:31:46 33° W
Cosmos 1633 Rocket 3.4 23:33:06 49° WSW 23:33:39 52° WNW 23:37:56 10° N
Cosmos 1933 Rocket 3.6 23:35:34 62° ESE 23:35:53 65° E 23:40:19 10° NNE
Cosmos 1666 Rocket 4.4 23:37:07 37° W 23:37:54 40° WNW 23:42:07 10° N
Meteor 1-11 Rocket 4.2 23:41:19 39° SE 23:42:40 47° E 23:47:56 10° NNE
Cosmos 2219 Rocket 3.7 23:39:55 10° NW 23:44:02 21° W 23:44:40 21° WSW
Cosmos 2263 Rocket 4.4 23:46:36 10° ESE 23:48:20 12° E 23:50:09 10° ENE
NOSS 2-2 (C) 4.3 23:44:12 10° NW 23:49:27 81° SW 23:52:23 36° SSE
SL-16 R/B 2.7 23:44:08 10° NNW 23:49:43 56° ENE 23:52:42 27° SE
Cosmos 1992 Rocket 4.2 23:45:07 10° NNW 23:50:21 65° ENE 23:52:06 40° SE
Cosmos 1269 Rocket 3.9 23:50:05 56° SSW 23:51:15 90° W 23:56:35 10° NNE
PSLV R/B 3.7 23:46:40 10° NNE 23:51:29 84° ESE 23:52:12 64° S
Resurs 1-4 Rocket 4.0 23:49:38 10° NE 23:53:19 19° E 23:55:13 16° ESE
